Regional Weather Roundup
Issued by NWS Green Bay, WI

Home | Current Version | Previous Version | Graphics & Text | Print | Product List | Glossary Off
Versions: 1 2 3 4 5 6 7 8 9 10 11 12 13 14 15 16 17 18 19 20 21 22 23 24 25 26 27 28 29 30 31 32 33 34 35 36 37 38 39 40 41 42 43 44 45 46 47 48 49 50

000
ASUS43 KGRB 172110
RWRGRB

NORTH-CENTRAL AND NORTHEAST WISCONSIN REGIONAL WEATHER ROUNDUP
NATIONAL WEATHER SERVICE GREEN BAY WI
400 PM CDT WED SEP 17 2014

WIZ005-009-010>012-018-019-172200-
NORTH CENTRAL WISCONSIN

CITY           SKY/WX    TMP DP  RH WIND       PRES   REMARKS
IRONWOOD       MOSUNNY   52  46  82 N8        29.99S
MANITOWISH WTR MOSUNNY   63  49  61 N9        29.97R
ARBOR VITAE    MOSUNNY   67  47  47 N6        29.95R
EAGLE RIVER    CLOUDY    67  43  40 NW8       29.94S
LAND O LAKES   MOSUNNY   62  49  62 N10G17    29.98R
RHINELANDER    SUNNY     68  45  43 NW8       29.96S
PHILLIPS       PTSUNNY   69  49  49 SW7       29.94S
ANTIGO         PTSUNNY   68  48  49 W7        29.96R
TOMAHAWK       MOSUNNY   67  46  45 CALM      29.95F
MERRILL        PTSUNNY   68  51  53 NW3       29.95S
$$

WIZ013-073-172200-
NORTHEAST WISCONSIN

CITY           SKY/WX    TMP DP  RH WIND       PRES   REMARKS
IRON MOUNTAIN  CLOUDY    63  49  60 NE14G25   29.93R
MARINETTE      SUNNY     70  46  43 NW5       29.91S
OCONTO         MOSUNNY   69  50  51 W3        29.92F
$$

WIZ017-030-035>037-045-172200-
CENTRAL WISCONSIN

CITY           SKY/WX    TMP DP  RH WIND       PRES   REMARKS
MEDFORD        PTSUNNY   68  49  50 W7        29.96S
WAUSAU         PTSUNNY   67  49  52 CALM      29.95R
MOSINEE        PTSUNNY   70  52  52 W9        29.97S
MARSHFIELD     MOSUNNY   66  51  58 W5        29.96S
WISC RAPIDS    PTSUNNY   70  47  43 CALM      29.98S
STEVENS POINT  MOSUNNY   67  47  49 W6        29.97S
WAUPACA        MOSUNNY   71  47  42 CALM      29.96S
SHAWANO        PTSUNNY   72  49  43 NW7       29.94S
CLINTONVILLE   CLOUDY    70  46  43 W9G17     29.94S
$$

WIZ038-039-048-051-172200-
FOX VALLEY

CITY           SKY/WX    TMP DP  RH WIND       PRES   REMARKS
NWS GREEN BAY  PTSUNNY   71  50  47 SW10      29.94F
APPLETON       PTSUNNY   70  46  43 SW6       29.96S
OSHKOSH        PTSUNNY   68  49  50 W9        29.96S
FOND DU LAC    MOSUNNY   68  48  48 SW8       29.97S
$$

WIZ022-050-052-172200-
EAST CENTRAL WISCONSIN

CITY           SKY/WX    TMP DP  RH WIND       PRES   REMARKS
STURGEON BAY   PTSUNNY   68  48  49 SW8       29.95S
MANITOWOC      CLOUDY    68  49  50 W9        29.96S
SHEBOYGAN      MOSUNNY   68  47  46 W9        29.97S
$$

LMZ563-521-522-541>543-172200-
LAKESHORE

STATION/POSITION TIME  TEMP    WIND        PRES    VSBY  WAVE
                       AIR SEA DIR/SP/G                  HT/PER
                 (UTC) (F)     (DEG/KT/KT) (MB)    (MI)  (FT/S)
SHEBOYGAN LKSHOR 2100   58 48  170/ 12/ 13 1015.3S
KEWAUNEE LKSHORE 2100   58     160/  9/ 10 1013.1F
TWO RIVERS CG    2100   56 61              1015.1      6   2
NORTHPORT PIER   2100   64     150/  7/ 10 1013.5R
N MID LAKE BUOY  2100   59 59  220/ 14/ 16 1013.7R         2/ 3
S GREEN BAY BUOY 2100   63     VRB  8/  8  1014.6F
SISTER BAY LKSHO 2000          260/  7/  7   N/A
CHAMBERS ISLAND  2100   66     160/  5/ 11 1013.5S
MENOMINEE LKSHOR 2100   65     180/  8/ 12 1013.7F
$$



USA.gov is the U.S. government's official web portal to all federal, state and local government web resources and services.